Regional Weather Roundup
Issued by NWS

Home | Current Version | Previous Version | Graphics & Text | Print | Product List | Glossary On
Versions: 1 2 3 4 5 6 7 8 9 10 11 12 13 14 15 16 17 18 19 20 21 22 23 24 25 26 27 28 29 30 31 32 33 34 35 36 37 38 39 40 41 42 43 44 45 46 47 48 49 50
919
ASUS44 KLIX 221901
RWRLA
LOUISIANA WEATHER ROUNDUP
NATIONAL WEATHER SERVICE NEW ORLEANS LA
200 PM CDT FRI AUG 22 2014

NOTE: "FAIR" INDICATES FEW OR NO CLOUDS BELOW 12,000 FEET WITH NO
      SIGNIFICANT WEATHER AND/OR OBSTRUCTIONS TO VISIBILITY.
      SKY/WX - SKY CONDITION AND SIGNIFICANT WEATHER.
      TMP - AIR TEMPERATURE.    DP   - DEWPOINT TEMPERATURE.
      RH  - RELATIVE HUMIDITY.  PRES - PRESSURE.
      HX  - HEAT INDEX.         WCI  - WIND CHILL INDEX.

*  THESE STATIONS ARE NOT NWS OR FAA STATIONS AND ARE NOT UNDER
   NWS QUALITY CONTROL.

LAZ040-048-061>063-065-066-069-222000-
SOUTHEAST LOUISIANA

CITY           SKY/WX    TMP DP  RH WIND       PRES   REMARKS
N.O. AUDUBON   NOT AVBL
N.O. INTL ARPT MOSUNNY   90  75  61 NE9       30.09F HX 100
N.O. LAKEFRONT SUNNY     88  75  65 NW6       30.10F HX  97
N.O. DOWNTOWN* FAIR      91  72  52 NW5       30.10F HX  98
SLIDELL        MOSUNNY   93  72  50 N3        30.08F HX 101
BATON ROUGE    MOSUNNY   93  71  48 VRB3      30.09F HX 100
BOOTHVILLE     SUNNY     91  76  61 NE6       30.10F HX 103
BELLE CHASSE   PTSUNNY   93  72  50 NE7       30.08F HX 101
BOGALUSA*      FAIR      93  69  46 CALM      30.10F HX  98
GALLIANO*      NOT AVBL
NEW ROADS*     FAIR      91  71  52 NW5       30.09F HX  98
GONZALES*      FAIR      91  76  60 N3        30.08F HX 103
HAMMOND*       NOT AVBL
HOUMA*         MOSUNNY   95  70  43 E5        30.08F HX 101
PORT FOURCHON* CLEAR     90  73  58 NE7       30.10F HX  98

$$

LAZ041-044-053-054-222000-
SOUTHWEST LOUISIANA

CITY           SKY/WX    TMP DP  RH WIND       PRES   REMARKS
LAKE CHARLES   MOSUNNY   90  75  61 CALM      30.07F HX 100
LAFAYETTE      MOSUNNY   93  74  53 CALM      30.08F HX 103
PATTERSON      MOSUNNY   93  75  55 NE7       30.12  HX 104
SALT POINT       N/A     92  76  59 SW5       30.08F HX 104
NEW IBERIA     MOSUNNY   95  74  50 VRB3      30.08F HX 105
CHENAULT AIRPK MOSUNNY   91  72  52 S3        30.08F HX  98

$$

LAZ027-028-222000-
CENTRAL LOUISIANA

CITY           SKY/WX    TMP DP  RH WIND       PRES   REMARKS
FORT POLK      MOSUNNY   90  72  55 VRB5      30.09F HX  97
ALEXANDRIA INT MOSUNNY   91  75  59 VRB3      30.07F HX 101
ALEXANDRIA     MOSUNNY   91  74  57 SW6       30.09F HX 100

$$

LAZ001-002-222000-
NORTHWEST LOUISIANA

CITY           SKY/WX    TMP DP  RH WIND       PRES   REMARKS
SHREVEPORT     SUNNY     93  71  48 VRB6      30.06F HX 100
BARKSDALE AFB  SUNNY     93  68  43 VRB5      30.06F HX  97
DTN SHREVEPORT SUNNY     93  70  46 W7        30.06F HX  99

$$

LAZ014-016-222000-
NORTHEAST LOUISIANA

CITY           SKY/WX    TMP DP  RH WIND       PRES   REMARKS
MONROE         SUNNY     93  72  50 VRB7      30.08F HX 101
TALLULAH       SUNNY     92  71  50 VRB3      30.08F HX  98

$$




USA.gov is the U.S. government's official web portal to all federal, state and local government web resources and services.